Weather History for KBML - January, 1999

Change the Weather History Date:

Friday, January 22, 1999

  Actual Average Record
Temperature  
Mean Temperature 31 °F -  
Max Temperature 37 °F 20 °F 46 °F (1997)
Min Temperature 25 °F 0 °F -23 °F (2005)
Degree Days  
Heating Degree Days 34    
Moisture  
Dew Point 24 °F    
Average Humidity 79    
Maximum Humidity 92    
Minimum Humidity 57    
Precipitation  
Precipitation 0.06 in - - ()
Sea Level Pressure  
Sea Level Pressure 30.49 in    
Wind  
Wind Speed 2 mph (ESE)    
Max Wind Speed 15 mph    
Max Gust Speed -    
Visibility 7 miles    
Events Snow    
Averages and records for this station are not official NWS values.
T = Trace of Precipitation, MM = Missing Value Source: NWS Daily Summary

Daily Weather History Graph

Daily Weather History Graph

Search for Another Location

Airport or City:

Trip Planner

Search our weather history database for the weather conditions in past years. The results will help you decide how hot, cold, wet, or windy it might be!

Date:

Astronomy

Jan. 22, 1999 Rise Set
Actual Time 7:13 AM EST 4:39 PM EST
Civil Twilight 6:41 AM EST 5:11 PM EST
Nautical Twilight 6:06 AM EST 5:46 PM EST
Astronomical Twilight 5:31 AM EST 6:21 PM EST
Moon 10:05 AM EST (1/22) 10:25 PM EST (1/22)
Length of Visible Light 10h 29m
Length of Day
9h 25m
Waxing Crescent, 27% of the Moon is Illuminated
Jan 22
Waxing Crescent
Jan 24
First Quarter
Jan 31
Full
Feb 8
Last Quarter
Feb 16
New

Hourly Weather History & Observations

Time (EST) Temp. Windchill Dew Point Humidity Pressure Visibility Wind Dir Wind Speed Gust Speed Precip Events Conditions
12:52 AM 25.0 °F - 23.0 °F 92% 30.32 in 7.0 mi Calm Calm - N/A   Overcast
3:52 AM 27.0 °F - 21.9 °F 81% 30.35 in 10.0 mi Calm Calm - N/A   Overcast
4:52 AM 26.1 °F - 23.0 °F 88% 30.39 in 9.0 mi Calm Calm - N/A   Overcast
5:52 AM 26.1 °F - 23.0 °F 88% 30.40 in 10.0 mi Calm Calm - N/A   Overcast
6:52 AM 25.0 °F - 23.0 °F 92% 30.43 in 8.0 mi Calm Calm - N/A   Overcast
7:52 AM 25.0 °F - 23.0 °F 92% 30.45 in 8.0 mi Calm Calm - N/A   Overcast
8:52 AM 27.0 °F - 24.1 °F 89% 30.47 in 7.0 mi Calm Calm - N/A   Overcast
9:52 AM 28.9 °F - 23.0 °F 78% 30.50 in 10.0 mi Calm Calm - N/A   Overcast
10:52 AM 33.1 °F - 23.0 °F 66% 30.51 in 10.0 mi Calm Calm - N/A   Partly Cloudy
11:52 AM 35.1 °F - 23.0 °F 61% 30.49 in 10.0 mi Calm Calm - N/A   Scattered Clouds
12:52 PM 37.0 °F - 23.0 °F 57% 30.47 in 10.0 mi Calm Calm - N/A   Clear
1:52 PM 36.0 °F 29.6 °F 24.1 °F 62% 30.47 in 10.0 mi South 8.1 mph - N/A   Clear
2:52 PM 35.1 °F 29.3 °F 24.1 °F 64% 30.49 in 10.0 mi SSE 6.9 mph - N/A   Clear
3:52 PM 35.1 °F 29.3 °F 24.1 °F 64% 30.49 in 10.0 mi ESE 6.9 mph - N/A   Clear
4:52 PM 33.1 °F 25.5 °F 24.1 °F 70% 30.52 in 10.0 mi ESE 9.2 mph - N/A   Mostly Cloudy
5:52 PM 32.0 °F 25.6 °F 24.1 °F 73% 30.53 in 10.0 mi SE 6.9 mph - N/A   Overcast
6:52 PM 32.0 °F 26.4 °F 24.1 °F 73% 30.56 in 10.0 mi ESE 5.8 mph - N/A   Overcast
7:17 PM 30.2 °F 23.4 °F 24.8 °F 80% 30.51 in 2.5 mi ESE 6.9 mph - 0.00 in Snow Light Snow
7:26 PM 30.2 °F 24.3 °F 24.8 °F 80% 30.51 in 1.5 mi ESE 5.8 mph - 0.00 in Snow Light Snow
7:37 PM 30.2 °F 25.4 °F 24.8 °F 80% 30.51 in 2.5 mi ESE 4.6 mph - 0.00 in Snow Light Snow
7:52 PM 28.9 °F 23.9 °F 26.1 °F 89% 30.56 in 2.0 mi SE 4.6 mph - 0.00 in Snow Light Snow
8:14 PM 30.2 °F - 26.6 °F 86% 30.49 in 4.0 mi Calm Calm - 0.00 in Snow Light Snow
8:52 PM 30.0 °F - 26.1 °F 85% 30.53 in 7.0 mi Calm Calm - 0.00 in   Overcast
9:05 PM 30.2 °F 25.4 °F 24.8 °F 80% 30.48 in 9.0 mi NE 4.6 mph - N/A   Overcast
9:52 PM 30.0 °F 24.1 °F 24.1 °F 79% 30.56 in 4.0 mi East 5.8 mph - 0.01 in Snow Light Snow
9:58 PM 28.4 °F 22.2 °F 24.8 °F 86% 30.51 in 2.0 mi East 5.8 mph - 0.01 in Snow Light Snow
10:03 PM 28.4 °F 23.3 °F 24.8 °F 86% 30.51 in 1.2 mi ESE 4.6 mph - 0.01 in Snow Light Snow
10:20 PM 28.4 °F 23.3 °F 24.8 °F 86% 30.51 in 1.5 mi ESE 4.6 mph - 0.03 in Snow Light Snow
10:34 PM 28.4 °F 21.2 °F 24.8 °F 86% 30.51 in 2.0 mi ESE 6.9 mph - 0.04 in Snow Light Snow
10:52 PM 28.0 °F 20.0 °F 24.1 °F 85% 30.55 in 5.0 mi ESE 8.1 mph - 0.04 in Snow Light Snow
11:52 PM 28.0 °F 16.5 °F 21.9 °F 78% 30.54 in 10.0 mi SE 15.0 mph - 0.01 in   Overcast